Location: Alston School (historical)
(35.5076°N, 89.8251°W)
Time: 17:11:41
(UTC+00:00)

Cosmos 2058 Rocket - Pass Details

Date: 23 March 2026
Orbit: 604 x 632 km, 82.5° (Epoch: 18 April)

Event Time Altitude Azimuth Distance (km) Brightness Sun altitude
Rises 10:45:17 0° 172° (S) 2,892 6.5 -15.6°
Reaches altitude 10° 10:47:34 10° 166° (SSE) 1,994 5.7 -15.2°
Maximum altitude 10:51:48 47° 93° (E) 834 4.2 -14.3°
Drops below altitude 10° 10:56:06 10° 19° (NNE) 2,017 6.1 -13.5°
Sets 10:58:24 0° 14° (NNE) 2,930 6.9 -13.0°
